Regional Weather Roundup
Issued by NWS

Home | Current Version | Previous Version | Graphics & Text | Print | Product List | Glossary On
Versions: 1 2 3 4 5 6 7 8 9 10 11 12 13 14 15 16 17 18 19 20 21 22 23 24 25 26 27
000
ASUS43 KDMX 221507
RWRIA

WEATHER ROUNDUP FOR IOWA
NATIONAL WEATHER SERVICE DES MOINES IA
1000 AM CDT WED OCT 22 2014

NOTE: "FAIR" INDICATES FEW OR NO CLOUDS BELOW 12,000 FEET WITH NO
SIGNIFICANT WEATHER AND/OR OBSTRUCTIONS TO VISIBILITY.

* - THESE STATIONS ARE NOT NWS STATIONS...THUS NOT UNDER NWS
QUALITY CONTROL.  THEY ALSO DO NOT REPORT WEATHER SUCH
AS PRECIPITATION OR FOG.

IAZ001>003-012>014-020>022-031>034-043>046-221600-
   NORTHWEST IOWA

CITY           SKY/WX    TMP DP  RH WIND       PRES   REMARKS
CARROLL *      PTSUNNY   52  43  71 SE14      30.15S
CHEROKEE *     SUNNY     54  45  71 S15       30.09S
DENISON *      SUNNY     57  45  62 S8G21     30.10S
LE MARS *      SUNNY     59  46  63 S16G24    30.05S
ORANGE CITY *  SUNNY     59  45  58 S12G20    30.05S
SHELDON *      SUNNY     55  45  67 S21G29    30.04S
STORM LAKE *   SUNNY     52  43  71 SE21      30.12R
$$

IAZ055>058-069>071-079>083-090>094-221600-
   SOUTHWEST IOWA

CITY           SKY/WX    TMP DP  RH WIND       PRES   REMARKS
ATLANTIC *     MOSUNNY   55  43  62 S14G22    30.15S
AUDUBON *      MOSUNNY   52  41  66 SE7       30.16S
CLARINDA *     SUNNY     55  45  67 SE9G21    30.18F
COUNCIL BLFS * SUNNY     57  48  72 S18       30.10F
CRESTON *      CLOUDY    50  43  76 SE12G20   30.20S
HARLAN  *      SUNNY     57  45  62 S15G26    30.16F
RED OAK *      PTSUNNY   57  45  62 SE12G20   30.15F
SHENANDOAH *   SUNNY     59  46  63 SE12G17   30.16S
$$

IAZ047>049-059>061-072>074-084-221600-
   CENTRAL IOWA

CITY           SKY/WX    TMP DP  RH WIND       PRES   REMARKS
ANKENY *       PTSUNNY   48  43  81 SE13G18   30.23F
CHARITON *     SUNNY     50  41  71 SE15      30.24S
GRINNELL*      SUNNY     46  41  81 SE14      30.28S
KNOXVILLE *    SUNNY     48  41  76 SE12      30.24F
PELLA *        SUNNY     48  43  81 SE10      30.28S
PERRY *        CLOUDY    50  41  71 SE13G21   30.20S
$$

IAZ004>006-015-016-023>025-035-036-221600-
   NORTH CENTRAL IOWA

CITY           SKY/WX    TMP DP  RH WIND       PRES   REMARKS
ALGONA *       CLOUDY    48  41  76 S18G31    30.16F
CLARION *      PTSUNNY   46  41  81 SE16      30.20S
FOREST CITY *  MOSUNNY   46  41  81 SE16G25   30.20R
IOWA FALLS *   CLOUDY    45  39  81 SE14      30.24S
$$

IAZ007>011-017>019-026>030-037>042-050>054-066-221600-
   NORTHEAST IOWA

CITY           SKY/WX    TMP DP  RH WIND       PRES   REMARKS
CHARLES CITY * SUNNY     45  39  81 S13G23    30.27S
DECORAH *      SUNNY     43  37  81 S10G16    30.29R
MONTICELLO *   SUNNY     45  41  87 SE9       30.33R
OELWEIN *      SUNNY     45  39  81 SE16      30.30S
$$

IAZ064-065-067-068-078-221600-
   EAST CENTRAL IOWA

CITY           SKY/WX    TMP DP  RH WIND       PRES   REMARKS
MT. PLEASANT * SUNNY     50  41  71 S9        30.32S
MUSCATINE *    SUNNY     46  39  76 SE8       30.34S
$$

IAZ062-063-075>077-085>089-095>099-221600-
   SOUTHEAST IOWA

CITY           SKY/WX    TMP DP  RH WIND       PRES   REMARKS
FAIRFIELD *    SUNNY     48  41  76 SE14      30.30F
FORT MADISON * SUNNY     52  43  71 SE9       30.33R
KEOKUK *       SUNNY     48  43  81 SE9       30.32S
OSKALOOSA *      N/A     46  41  81 SE12      30.29S
CENTERVILLE *  SUNNY     48  41  76 SE7       30.28S
WASHINGTON *   SUNNY     48  45  87 SE12      30.31F
$$

ABBREVIATIONS USED IN REMARKS
   TC - TEMPERATURES IN CELSIUS
  WCI - WIND CHILL INDEX
   HX - HEAT INDEX
  VSB - VISIBILITY
$$




USA.gov is the U.S. government's official web portal to all federal, state and local government web resources and services.